Hourly Data Report for October 05, 2017

All times are specified in Local Standard Time (LST). Add 1 hour to adjust for Daylight Saving Time where and when it is observed.

OAKPOINT MARINE
MANITOBA

50°29'58.044" N
98°02'12.030" W
249.60 m
504K0NM
71144
WOJ

Download Data

Hourly Data (October 2017)
Hourly Data Report for October 5, 2017
Temp Definition
°C
Dew Point Temp Definition
°C
Rel Hum Definition
%
Wind Dir Definition
10's deg

Wind Spd Definition
km/h
Visibility Definition
km
Stn Press Definition
kPa
Hmdx Definition


Wind Chill Definition


Weather Definition


TIME
00:00 3.7 1.0 82 2 10   98.87     LegendNANA
01:00 3.7 1.1 84 1 9   98.92     LegendNANA
02:00 3.4 1.4 87 36 10   98.94     LegendNANA
03:00 4.4 2.4 87 35 7   98.95     LegendNANA
04:00 3.9 2.3 90 36 11   98.98     LegendNANA
05:00 4.3 2.1 86 36 12   99.00     LegendNANA
06:00 3.1 1.3 88 2 10   99.00     LegendNANA
07:00 3.1 2.3 94 36 10   99.04     LegendNANA
08:00 4.7 3.2 90 1 7   99.06     LegendNANA
09:00 7.7 4.2 78 36 11   99.06     LegendNANA
10:00 8.4 1.9 64 32 14   99.09     LegendNANA
11:00 8.9 2.7 65 30 15   99.09     LegendNANA
12:00 9.2 3.2 66 29 17   99.05     LegendNANA
13:00 9.5 3.8 67 28 21   99.01     LegendNANA
14:00 10.2 3.5 63 29 21   98.98     LegendNANA
15:00 11.0 1.5 52 30 7   98.93     LegendNANA
16:00 11.1 0.0 46 23 2   98.88     LegendNANA
17:00 10.4 0.3 49 20 4   98.85     LegendNANA
18:00 7.7 1.4 64 11 3   98.80     LegendNANA
19:00 6.6 2.2 74 16 6   98.78     LegendNANA
20:00 6.7 3.3 79 16 10   98.75     LegendNANA
21:00 10.1 4.6 69 18 17   98.71     LegendNANA
22:00 10.3 4.9 69 19 21   98.68     LegendNANA
23:00 10.2 5.4 72 20 27   98.64     LegendNANA

Notes on Data Quality.

Legend

  • E = Estimated
  • M = Missing
  • NA = Not Available
  • ‡ = Partner data that is not subject to review by the National Climate Archives
Date modified: